TimeCST,TemperatureF,Dew PointF,Humidity,Sea Level PressureIn,VisibilityMPH,Wind Direction,Wind SpeedMPH,Gust SpeedMPH,PrecipitationIn,Events,Conditions,WindDirDegrees,DateUTC
12:15 AM,51.8,51.8,100,30.05,7.0,SSE,8.1,-,N/A,,Overcast,150,2013-11-16 06:15:00
12:35 AM,51.8,50.0,94,30.05,7.0,SE,6.9,-,N/A,,Overcast,140,2013-11-16 06:35:00
12:55 AM,51.8,50.0,94,30.05,7.0,SSE,3.5,-,N/A,,Overcast,150,2013-11-16 06:55:00
1:15 AM,51.8,50.0,94,30.06,5.0,South,3.5,-,N/A,,Overcast,170,2013-11-16 07:15:00
1:35 AM,51.8,50.0,94,30.06,5.0,Calm,Calm,-,N/A,,Overcast,0,2013-11-16 07:35:00
1:55 AM,50.0,50.0,100,30.06,5.0,Calm,Calm,-,N/A,,Overcast,0,2013-11-16 07:55:00
2:15 AM,51.8,50.0,94,30.06,7.0,SE,3.5,-,N/A,,Overcast,140,2013-11-16 08:15:00
2:35 AM,51.8,50.0,94,30.05,5.0,SE,9.2,-,N/A,,Overcast,140,2013-11-16 08:35:00
2:55 AM,51.8,50.0,94,30.05,5.0,SE,6.9,-,N/A,,Overcast,140,2013-11-16 08:55:00
3:15 AM,51.8,50.0,94,30.05,5.0,SE,8.1,-,N/A,,Overcast,140,2013-11-16 09:15:00
3:35 AM,51.8,50.0,94,30.05,7.0,SSE,8.1,-,N/A,,Overcast,150,2013-11-16 09:35:00
3:55 AM,51.8,51.8,100,30.06,7.0,SSE,8.1,-,N/A,,Overcast,160,2013-11-16 09:55:00
4:15 AM,51.8,51.8,100,30.05,7.0,SSE,8.1,-,N/A,,Overcast,150,2013-11-16 10:15:00
4:35 AM,51.8,51.8,100,30.05,7.0,SSE,5.8,-,N/A,,Overcast,150,2013-11-16 10:35:00
4:55 AM,51.8,51.8,100,30.04,4.0,SSE,8.1,-,N/A,,Overcast,150,2013-11-16 10:55:00
5:15 AM,51.8,51.8,100,30.05,1.8,SSE,4.6,-,N/A,,Overcast,160,2013-11-16 11:15:00
5:35 AM,53.6,51.8,94,30.04,1.2,SSE,6.9,-,N/A,,Overcast,150,2013-11-16 11:35:00
5:55 AM,53.6,51.8,94,30.04,1.2,SE,4.6,-,N/A,,Overcast,140,2013-11-16 11:55:00
6:15 AM,53.6,51.8,94,30.04,1.2,SE,5.8,-,N/A,,Overcast,140,2013-11-16 12:15:00
6:35 AM,53.6,51.8,94,30.03,0.8,SE,8.1,-,N/A,,Overcast,140,2013-11-16 12:35:00
6:55 AM,53.6,51.8,94,30.03,0.5,SE,6.9,-,N/A,Fog,Fog,140,2013-11-16 12:55:00
7:15 AM,53.6,53.6,100,30.02,0.8,SE,9.2,-,N/A,,Overcast,130,2013-11-16 13:15:00
7:35 AM,53.6,53.6,100,30.03,0.8,SE,6.9,-,N/A,,Overcast,140,2013-11-16 13:35:00
7:55 AM,55.4,53.6,94,30.04,1.0,SE,6.9,-,N/A,,Overcast,140,2013-11-16 13:55:00
8:15 AM,55.4,55.4,100,30.04,1.8,SE,9.2,-,N/A,,Overcast,140,2013-11-16 14:15:00
8:35 AM,57.2,55.4,94,30.04,2.0,SSE,9.2,-,N/A,,Overcast,150,2013-11-16 14:35:00
8:55 AM,57.2,55.4,94,30.04,3.0,SE,10.4,-,N/A,,Overcast,140,2013-11-16 14:55:00
9:15 AM,57.2,55.4,94,30.03,3.0,SE,11.5,-,N/A,,Overcast,140,2013-11-16 15:15:00
9:35 AM,59.0,57.2,94,30.03,7.0,SE,10.4,-,N/A,,Overcast,140,2013-11-16 15:35:00
9:55 AM,59.0,59.0,100,30.03,7.0,SE,11.5,-,N/A,,Overcast,140,2013-11-16 15:55:00
10:15 AM,59.0,59.0,100,30.03,7.0,SE,12.7,-,N/A,,Overcast,140,2013-11-16 16:15:00
10:35 AM,60.8,59.0,94,30.02,10.0,SSE,11.5,-,N/A,,Overcast,160,2013-11-16 16:35:00
10:55 AM,60.8,59.0,94,30.00,7.0,SSE,13.8,-,N/A,,Overcast,160,2013-11-16 16:55:00
11:15 AM,62.6,60.8,94,30.00,10.0,South,15.0,-,N/A,,Overcast,170,2013-11-16 17:15:00
11:35 AM,62.6,60.8,94,29.99,7.0,South,15.0,18.4,N/A,,Overcast,170,2013-11-16 17:35:00
11:55 AM,62.6,60.8,94,29.97,10.0,South,12.7,20.7,N/A,,Overcast,170,2013-11-16 17:55:00
12:15 PM,64.4,60.8,88,29.95,10.0,SSE,15.0,-,N/A,,Overcast,160,2013-11-16 18:15:00
12:35 PM,64.4,60.8,88,29.96,10.0,SSE,13.8,18.4,N/A,,Overcast,160,2013-11-16 18:35:00
12:55 PM,64.4,60.8,88,29.94,10.0,South,13.8,-,N/A,,Overcast,170,2013-11-16 18:55:00
1:15 PM,64.4,60.8,88,29.93,10.0,South,9.2,-,N/A,,Overcast,170,2013-11-16 19:15:00
1:35 PM,64.4,60.8,88,29.93,10.0,South,9.2,-,N/A,,Overcast,170,2013-11-16 19:35:00
1:55 PM,64.4,62.6,94,29.93,10.0,South,9.2,-,N/A,,Overcast,190,2013-11-16 19:55:00
2:15 PM,66.2,62.6,88,29.92,10.0,South,8.1,-,N/A,,Overcast,190,2013-11-16 20:15:00
2:35 PM,68.0,62.6,83,29.92,10.0,South,8.1,-,N/A,,Overcast,180,2013-11-16 20:35:00
2:55 PM,69.8,62.6,78,29.91,10.0,South,8.1,-,N/A,,Overcast,180,2013-11-16 20:55:00
3:15 PM,69.8,62.6,78,29.90,10.0,South,13.8,-,N/A,,Overcast,170,2013-11-16 21:15:00
3:35 PM,68.0,62.6,83,29.90,10.0,South,9.2,-,N/A,,Overcast,170,2013-11-16 21:35:00
3:55 PM,68.0,64.4,88,29.90,10.0,South,8.1,-,N/A,,Overcast,180,2013-11-16 21:55:00
4:15 PM,68.0,64.4,88,29.90,10.0,South,9.2,-,N/A,,Overcast,170,2013-11-16 22:15:00
4:35 PM,68.0,64.4,88,29.90,10.0,South,11.5,-,N/A,,Overcast,170,2013-11-16 22:35:00
4:55 PM,68.0,62.6,83,29.90,10.0,South,5.8,-,N/A,,Overcast,180,2013-11-16 22:55:00
5:15 PM,66.2,62.6,88,29.90,10.0,SE,9.2,-,N/A,,Mostly Cloudy,140,2013-11-16 23:15:00
5:35 PM,66.2,62.6,88,29.90,10.0,SSE,5.8,-,N/A,,Overcast,160,2013-11-16 23:35:00
5:55 PM,64.4,62.6,94,29.90,10.0,SE,6.9,-,N/A,,Overcast,140,2013-11-16 23:55:00
6:15 PM,66.2,62.6,88,29.90,10.0,SSE,6.9,-,N/A,,Overcast,150,2013-11-17 00:15:00
6:35 PM,66.2,62.6,88,29.90,10.0,SSE,5.8,-,N/A,,Overcast,150,2013-11-17 00:35:00
6:55 PM,66.2,62.6,88,29.89,10.0,SE,12.7,-,N/A,,Mostly Cloudy,140,2013-11-17 00:55:00
7:15 PM,66.2,62.6,88,29.90,10.0,SE,10.4,-,N/A,,Mostly Cloudy,140,2013-11-17 01:15:00
7:35 PM,66.2,62.6,88,29.90,10.0,SE,12.7,-,N/A,,Overcast,140,2013-11-17 01:35:00
7:55 PM,66.2,62.6,88,29.90,10.0,SE,13.8,-,N/A,,Mostly Cloudy,140,2013-11-17 01:55:00
8:15 PM,66.2,62.6,88,29.91,10.0,SE,10.4,-,N/A,,Mostly Cloudy,140,2013-11-17 02:15:00
8:35 PM,66.2,62.6,88,29.91,10.0,SE,11.5,-,N/A,,Mostly Cloudy,140,2013-11-17 02:35:00
8:55 PM,66.2,62.6,88,29.90,10.0,SE,12.7,-,N/A,,Mostly Cloudy,140,2013-11-17 02:55:00
9:15 PM,64.4,62.6,94,29.90,10.0,SE,15.0,-,N/A,,Mostly Cloudy,140,2013-11-17 03:15:00
9:35 PM,64.4,62.6,94,29.90,10.0,SE,13.8,-,N/A,,Mostly Cloudy,140,2013-11-17 03:35:00
9:55 PM,64.4,62.6,94,29.90,10.0,SSE,10.4,-,N/A,,Overcast,150,2013-11-17 03:55:00
10:15 PM,66.2,62.6,88,29.90,10.0,SSE,16.1,19.6,N/A,,Overcast,160,2013-11-17 04:15:00
10:35 PM,68.0,62.6,83,29.90,10.0,SSE,17.3,23.0,N/A,,Overcast,160,2013-11-17 04:35:00
10:55 PM,68.0,62.6,83,29.90,10.0,SSE,17.3,-,N/A,,Overcast,160,2013-11-17 04:55:00
11:15 PM,68.0,62.6,83,29.89,10.0,SSE,18.4,21.9,N/A,,Overcast,160,2013-11-17 05:15:00
11:35 PM,68.0,62.6,83,29.89,10.0,SSE,18.4,23.0,N/A,,Overcast,160,2013-11-17 05:35:00
11:55 PM,68.0,62.6,83,29.88,10.0,SSE,18.4,25.3,N/A,,Overcast,160,2013-11-17 05:55:00